Regional Weather Roundup
Issued by NWS

Home | Current Version | Previous Version | Text Only | Print | Product List | Glossary Off
Versions: 1 2 3 4 5 6 7 8 9 10 11 12 13 14 15 16 17 18 19 20 21 22 23 24 25 26 27 28 29 30 31 32 33 34 35 36 37 38 39 40 41 42 43 44 45 46 47 48 49 50

000
ASUS43 KOAX 231710
RWRNE

WEATHER ROUNDUP FOR NEBRASKA
NATIONAL WEATHER SERVICE OMAHA NE
1200 PM CDT MON OCT 23 2017

NOTES: SATELLITE DATA IS BEING USED TO AUGMENT CLOUD COVER ABOVE
       12000 FEET.
       "FAIR" INDICATES FEW OR NO CLOUDS BELOW 12,000 FEET WITH NO
       SIGNIFICANT WEATHER AND/OR OBSTRUCTIONS TO VISIBILITY.


NEZ001>004-019>022-054>056-231800-
NEBRASKA PANHANDLE

CITY           SKY/WX    TMP DP  RH WIND       PRES   REMARKS
SCOTTSBLUFF    SUNNY     54  21  27 N26G36    30.39S
ALLIANCE       SUNNY     52  22  30 N29G37    30.35R
CHADRON        SUNNY     55  21  26 NW20G33   30.35S
GORDON         FAIR      53  27  36 NW17G25   30.30S
KIMBALL        CLOUDY    46  24  42 N20G25    30.41R
SIDNEY         CLOUDY    51  21  30 N28G40    30.37R
$$

NEZ057>060-069>072-079>082-231800-
SOUTHWEST NEBRASKA

CITY           SKY/WX    TMP DP  RH WIND       PRES   REMARKS
NORTH PLATTE   SUNNY     59  27  29 N24G33    30.27F
IMPERIAL       PTSUNNY   57  23  26 N20G29    30.32R
LEXINGTON      SUNNY     60  28  29 NW32G39   30.24S
MCCOOK         MOSUNNY   59  33  37 N21G30    30.27S
OGALLALA       SUNNY     58  22  25 N21G29    30.32R
$$

NEZ005>010-023>029-035>040-094-231800-
NORTH CENTRAL NEBRASKA

CITY           SKY/WX    TMP DP  RH WIND       PRES   REMARKS
VALENTINE      SUNNY     57  27  31 NW29G37   30.21S
AINSWORTH      SUNNY     55  29  37 NW30G36   30.21R
BROKEN BOW     SUNNY     59  29  31 NW26G43   30.19S
O`NEILL        SUNNY     57  33  39 NW29G41   30.13S
ORD            SUNNY     59  32  36 NW29G44   30.15S
THEDFORD       SUNNY     57  28  32 NW28G39   30.25S
$$

NEZ041-046>049-061>064-073>077-083>087-231800-
SOUTH CENTRAL NEBRASKA

CITY           SKY/WX    TMP DP  RH WIND       PRES   REMARKS
GRAND ISLAND   SUNNY     60  30  32 NW30G39   30.15R
AURORA         SUNNY     61  30  31 NW23G38   30.13S
HASTINGS       SUNNY     60  29  30 NW28G41   30.17R
HEBRON         CLOUDY    62  29  29 N25G36    30.12R
HOLDREGE       SUNNY     59  30  32 N26G39    30.21S
KEARNEY        SUNNY     59  30  33 NW30G40   30.19S
YORK           SUNNY     61  32  33 NW32G41   30.10S
$$

NEZ011>018-030>034-042>045-231800-
NORTHEAST NEBRASKA

CITY           SKY/WX    TMP DP  RH WIND       PRES   REMARKS
NORFOLK        MOSUNNY   60  36  40 NW21G39   30.06R
ALBION         MOSUNNY   61  35  38 NW23G32   30.11R
BLAIR          PTSUNNY   58  38  46 NW24G32   30.01R
COLUMBUS       SUNNY     62  34  35 NW28G33   30.07S
FREMONT        CLOUDY    61  37  40 NW26G37   30.04R
TEKAMAH        MOSUNNY   62  36  37 NW26G37   30.00S
WAYNE          SUNNY     59  32  36 NW21G33   30.04S
$$

NEZ050>053-065>068-078-088>093-231800-
SOUTHEAST NEBRASKA

CITY           SKY/WX    TMP DP  RH WIND       PRES   REMARKS
LINCOLN        CLOUDY    61  35  37 NW23G37   30.07R
OMAHA EPPLEY   PTSUNNY   60  38  43 NW25G38   30.00R
BEATRICE       PTSUNNY   63  36  36 NW35G43   30.07R
FALLS CITY     PTSUNNY   62  41  46 NW13G22   29.98R
NEBRASKA CITY  CLOUDY    64  37  36 NW22G38   30.00S
PLATTSMOUTH    MOSUNNY   61  36  39 NW28G37   30.01R
$$

NEZ044-045-051>053-067-231800-
OMAHA AREA

CITY           SKY/WX    TMP DP  RH WIND       PRES   REMARKS
OMAHA EPPLEY   PTSUNNY   60  38  43 NW25G38   30.00R
BLAIR          PTSUNNY   58  38  46 NW24G32   30.01R
FREMONT        CLOUDY    61  37  40 NW26G37   30.04R
MILLARD        CLOUDY    60  39  44 NW23G29   30.02R
OFFUTT AFB     PTSUNNY   59  38  45 NW24G35   30.00R
PLATTSMOUTH    MOSUNNY   61  36  39 NW28G37   30.01R
WAHOO          FAIR      60  35  38 NW17G30   30.04S
$$



USA.gov is the U.S. government's official web portal to all federal, state and local government web resources and services.